Year,Month,Day,Hour,Minute,Value (Times are PST for temperature in C)
2015,09,22,00,00,9.60
2015,09,22,00,01,9.60
2015,09,22,00,02,9.60
2015,09,22,00,03,9.60
2015,09,22,00,04,9.60
2015,09,22,00,05,9.60
2015,09,22,00,06,9.60
2015,09,22,00,07,9.60
2015,09,22,00,08,9.60
2015,09,22,00,09,9.60
2015,09,22,00,10,9.60
2015,09,22,00,11,9.60
2015,09,22,00,12,9.60
2015,09,22,00,13,9.60
2015,09,22,00,14,9.60
2015,09,22,00,15,9.60
2015,09,22,00,16,9.60
2015,09,22,00,17,9.60
2015,09,22,00,18,9.60
2015,09,22,00,19,9.60
2015,09,22,00,20,9.60
2015,09,22,00,21,9.60
2015,09,22,00,22,9.60
2015,09,22,00,23,9.60
2015,09,22,00,24,9.60
2015,09,22,00,25,9.60
2015,09,22,00,26,9.60
2015,09,22,00,27,9.60
2015,09,22,00,28,9.60
2015,09,22,00,29,9.60
2015,09,22,00,30,9.60
2015,09,22,00,31,9.60
2015,09,22,00,32,9.60
2015,09,22,00,33,9.60
2015,09,22,01,25,9.70
2015,09,22,01,26,9.70
2015,09,22,01,27,9.60
2015,09,22,01,28,9.60
2015,09,22,01,29,9.60
2015,09,22,01,30,9.60
2015,09,22,01,31,9.60
2015,09,22,01,32,9.60
2015,09,22,01,33,9.50
2015,09,22,01,34,9.50
2015,09,22,01,35,9.50
2015,09,22,01,36,9.50
2015,09,22,01,37,9.50
2015,09,22,01,38,9.50
2015,09,22,01,39,9.40
2015,09,22,01,40,9.40
2015,09,22,01,41,9.40
2015,09,22,01,42,9.40
2015,09,22,01,43,9.40
2015,09,22,01,44,9.40
2015,09,22,01,45,9.40
2015,09,22,01,46,9.40
2015,09,22,01,47,9.40
2015,09,22,01,48,9.30
2015,09,22,01,49,9.30
2015,09,22,01,50,9.30
2015,09,22,01,51,9.30
2015,09,22,01,52,9.30
2015,09,22,01,53,9.30
2015,09,22,01,54,9.20
2015,09,22,01,55,9.20
2015,09,22,01,56,9.20
2015,09,22,01,57,9.20
2015,09,22,01,58,9.20
2015,09,22,01,59,9.20
2015,09,22,02,00,9.20
2015,09,22,02,01,9.20
2015,09,22,02,02,9.20
2015,09,22,02,03,9.20
2015,09,22,02,04,9.20
2015,09,22,02,05,9.20
2015,09,22,02,06,9.20
2015,09,22,02,07,9.20
2015,09,22,02,08,9.20
2015,09,22,02,09,9.10
2015,09,22,02,10,9.10
2015,09,22,02,11,9.10
2015,09,22,02,12,9.10
2015,09,22,02,13,9.20
2015,09,22,02,14,9.20
2015,09,22,02,15,9.20
2015,09,22,02,16,9.20
2015,09,22,02,17,9.20
2015,09,22,02,18,9.10
2015,09,22,02,19,9.10
2015,09,22,02,20,9.10
2015,09,22,02,21,9.10
2015,09,22,02,22,9.10
2015,09,22,02,23,9.00
2015,09,22,02,24,9.00
2015,09,22,02,25,9.00
2015,09,22,02,26,9.00
2015,09,22,02,27,9.00
2015,09,22,02,28,9.00
2015,09,22,02,29,9.00
2015,09,22,02,30,8.80
2015,09,22,02,31,8.80
2015,09,22,02,32,8.80
2015,09,22,02,33,8.80
2015,09,22,02,34,8.70
2015,09,22,02,35,8.70
2015,09,22,02,36,8.70
2015,09,22,02,37,8.70
2015,09,22,02,38,8.70
2015,09,22,02,39,8.70
2015,09,22,02,40,8.60
2015,09,22,02,41,8.60
2015,09,22,02,42,8.60
2015,09,22,02,43,8.60
2015,09,22,02,44,8.50
2015,09,22,02,45,8.50
2015,09,22,02,46,8.50
2015,09,22,02,47,8.40
2015,09,22,02,48,8.40
2015,09,22,02,49,8.40
2015,09,22,02,50,8.40
2015,09,22,02,51,8.40
2015,09,22,02,52,8.30
2015,09,22,02,53,8.30
2015,09,22,02,54,8.30
2015,09,22,02,55,8.30
2015,09,22,02,56,8.30
2015,09,22,02,57,8.30
2015,09,22,02,58,8.30
2015,09,22,02,59,8.30
2015,09,22,03,00,8.20
2015,09,22,03,01,8.20
2015,09,22,03,02,8.20
2015,09,22,03,03,8.20
2015,09,22,03,04,8.20
2015,09,22,03,05,8.20
2015,09,22,03,06,8.20
2015,09,22,03,07,8.20
2015,09,22,03,08,8.20
2015,09,22,03,09,8.20
2015,09,22,03,10,8.20
2015,09,22,03,11,8.20
2015,09,22,03,12,8.20
2015,09,22,03,13,8.20
2015,09,22,03,14,8.20
2015,09,22,03,15,8.20
2015,09,22,03,16,8.20
2015,09,22,03,17,8.20
2015,09,22,03,18,8.20
2015,09,22,03,19,8.20
2015,09,22,03,20,8.20
2015,09,22,03,21,8.20
2015,09,22,03,22,8.20
2015,09,22,03,23,8.20
2015,09,22,03,24,8.10
2015,09,22,03,25,8.10
2015,09,22,03,26,8.10
2015,09,22,03,27,8.10
2015,09,22,03,28,8.10
2015,09,22,03,29,8.10
2015,09,22,03,30,8.10
2015,09,22,03,31,8.10
2015,09,22,03,32,8.10
2015,09,22,03,33,8.00
2015,09,22,03,34,8.00
2015,09,22,03,35,8.10
2015,09,22,03,36,8.10
2015,09,22,03,37,8.00
2015,09,22,03,38,8.00
2015,09,22,03,39,8.00
2015,09,22,03,40,8.00
2015,09,22,03,41,8.00
2015,09,22,03,42,8.00
2015,09,22,03,43,8.00
2015,09,22,03,44,8.00
2015,09,22,03,45,8.00
2015,09,22,03,46,8.00
2015,09,22,03,47,8.00
2015,09,22,03,48,8.00
2015,09,22,03,49,8.00
2015,09,22,03,50,8.10
2015,09,22,03,51,8.00
2015,09,22,03,52,8.00
2015,09,22,03,53,8.00
2015,09,22,03,54,7.90
2015,09,22,03,55,7.80
2015,09,22,03,56,7.80
2015,09,22,03,57,7.80
2015,09,22,03,58,7.70
2015,09,22,03,59,7.70
2015,09,22,04,00,7.70
2015,09,22,04,01,7.70
2015,09,22,04,02,7.60
2015,09,22,04,03,7.60
2015,09,22,04,04,7.60
2015,09,22,04,05,7.60
2015,09,22,04,06,7.50
2015,09,22,04,07,7.50
2015,09,22,04,08,7.50
2015,09,22,04,09,7.50
2015,09,22,04,10,7.40
2015,09,22,04,11,7.30
2015,09,22,04,12,7.30
2015,09,22,04,13,7.30
2015,09,22,04,14,7.30
2015,09,22,04,15,7.30
2015,09,22,04,16,7.30
2015,09,22,04,17,7.30
2015,09,22,04,18,7.30
2015,09,22,04,19,7.40
2015,09,22,04,20,7.50
2015,09,22,04,21,7.50
2015,09,22,04,22,7.50
2015,09,22,04,23,7.50
2015,09,22,04,24,7.50
2015,09,22,04,25,7.50
2015,09,22,04,26,7.50
2015,09,22,04,27,7.50
2015,09,22,04,28,7.50
2015,09,22,04,29,7.50
2015,09,22,04,30,7.60
2015,09,22,04,31,7.60
2015,09,22,04,32,7.70
2015,09,22,04,33,7.60
2015,09,22,04,34,7.60
2015,09,22,04,35,7.60
2015,09,22,04,36,7.60
2015,09,22,04,37,7.70
2015,09,22,04,38,7.70
2015,09,22,04,39,7.80
2015,09,22,04,40,7.80
2015,09,22,04,41,7.80
2015,09,22,04,42,7.90
2015,09,22,04,43,7.90
2015,09,22,04,44,7.90
2015,09,22,04,45,8.00
2015,09,22,04,46,8.00
2015,09,22,04,47,7.90
2015,09,22,04,48,7.90
2015,09,22,04,49,7.90
2015,09,22,04,50,7.90
2015,09,22,04,51,8.00
2015,09,22,04,52,8.00
2015,09,22,04,53,8.00
2015,09,22,04,54,8.00
2015,09,22,04,55,8.20
2015,09,22,04,56,8.20
2015,09,22,04,57,8.20
2015,09,22,04,58,8.10
2015,09,22,04,59,8.00
2015,09,22,05,00,8.00
2015,09,22,05,01,8.00
2015,09,22,05,02,7.90
2015,09,22,05,03,7.90
2015,09,22,05,04,7.90
2015,09,22,05,05,7.90
2015,09,22,05,06,7.90
2015,09,22,05,07,7.80
2015,09,22,05,08,7.80
2015,09,22,05,09,7.90
2015,09,22,05,10,7.90
2015,09,22,05,11,8.00
2015,09,22,05,12,8.00
2015,09,22,05,13,8.00
2015,09,22,05,14,8.10
2015,09,22,05,15,8.10
2015,09,22,05,16,8.10
2015,09,22,05,17,8.10
2015,09,22,05,18,8.20
2015,09,22,05,19,8.20
2015,09,22,05,20,8.20
2015,09,22,05,21,8.30
2015,09,22,05,22,8.30
2015,09,22,05,23,8.40
2015,09,22,05,24,8.40
2015,09,22,05,25,8.40
2015,09,22,05,26,8.30
2015,09,22,05,27,8.30
2015,09,22,05,28,8.30
2015,09,22,05,29,8.30
2015,09,22,05,30,8.30
2015,09,22,05,31,8.30
2015,09,22,05,32,8.30
2015,09,22,05,33,8.30
2015,09,22,05,34,8.30
2015,09,22,05,35,8.30
2015,09,22,05,36,8.30
2015,09,22,05,37,8.30
2015,09,22,05,38,8.30
2015,09,22,05,39,8.20
2015,09,22,05,40,8.20
2015,09,22,05,41,8.20
2015,09,22,05,42,8.20
2015,09,22,05,43,8.20
2015,09,22,05,44,8.20
2015,09,22,05,45,8.20
2015,09,22,05,46,8.20
2015,09,22,05,47,8.20
2015,09,22,05,48,8.20
2015,09,22,05,49,8.20
2015,09,22,05,50,8.20
2015,09,22,05,51,8.20
2015,09,22,05,52,8.20
2015,09,22,05,53,8.20
2015,09,22,05,54,8.20
2015,09,22,05,55,8.10
2015,09,22,05,56,8.00
2015,09,22,05,57,8.00
2015,09,22,05,58,8.00
2015,09,22,05,59,8.00
2015,09,22,06,00,8.00
2015,09,22,06,01,8.00
2015,09,22,06,02,8.00
2015,09,22,06,03,8.00
2015,09,22,06,04,8.00
2015,09,22,06,05,8.00
2015,09,22,06,06,8.00
2015,09,22,06,07,8.10
2015,09,22,06,08,8.20
2015,09,22,06,09,8.30
2015,09,22,06,10,8.30
2015,09,22,06,11,8.30
2015,09,22,06,12,8.40
2015,09,22,06,13,8.60
2015,09,22,06,14,8.60
2015,09,22,06,15,8.60
2015,09,22,06,16,8.50
2015,09,22,06,17,8.50
2015,09,22,06,18,8.50
2015,09,22,06,19,8.50
2015,09,22,06,20,8.50
2015,09,22,06,21,8.50
2015,09,22,06,22,8.50
2015,09,22,06,23,8.50
2015,09,22,06,24,8.50
2015,09,22,06,25,8.40
2015,09,22,06,26,8.30
2015,09,22,06,27,8.30
2015,09,22,06,28,8.30
2015,09,22,06,29,8.30
2015,09,22,06,30,8.20
2015,09,22,06,31,8.20
2015,09,22,06,32,8.20
2015,09,22,06,33,8.20
2015,09,22,06,34,8.20
2015,09,22,06,35,8.20
2015,09,22,06,36,8.20
2015,09,22,06,37,8.20
2015,09,22,06,38,8.20
2015,09,22,06,39,8.30
2015,09,22,06,40,8.30
2015,09,22,06,41,8.40
2015,09,22,06,42,8.40
2015,09,22,06,43,8.50
2015,09,22,06,44,8.60
2015,09,22,06,45,8.60
2015,09,22,06,46,8.50
2015,09,22,06,47,8.50
2015,09,22,06,48,8.40
2015,09,22,06,49,8.40
2015,09,22,06,50,8.40
2015,09,22,06,51,8.40
2015,09,22,06,52,8.40
2015,09,22,06,53,8.40
2015,09,22,06,54,8.40
2015,09,22,06,55,8.40
2015,09,22,06,56,8.40
2015,09,22,06,57,8.40
2015,09,22,06,58,8.40
2015,09,22,06,59,8.30
2015,09,22,07,00,8.30
2015,09,22,07,01,8.30
2015,09,22,07,02,8.20
2015,09,22,07,03,8.20
2015,09,22,07,04,8.20
2015,09,22,07,05,8.10
2015,09,22,07,06,7.90
2015,09,22,07,07,7.90
2015,09,22,07,08,7.90
2015,09,22,07,09,7.90
2015,09,22,07,10,7.90
2015,09,22,07,11,7.90
2015,09,22,07,12,7.90
2015,09,22,07,13,7.90
2015,09,22,07,14,8.00
2015,09,22,07,15,8.10
2015,09,22,07,16,8.20
2015,09,22,07,17,8.20
2015,09,22,07,18,8.30
2015,09,22,07,19,8.40
2015,09,22,07,20,8.40
2015,09,22,07,21,8.40
2015,09,22,07,22,8.50
2015,09,22,07,23,8.60
2015,09,22,07,24,8.60
2015,09,22,07,25,8.70
2015,09,22,07,26,8.70
2015,09,22,07,27,8.70
2015,09,22,07,28,8.70
2015,09,22,07,29,8.70
2015,09,22,07,30,8.70
2015,09,22,07,31,8.70
2015,09,22,07,32,8.70
2015,09,22,07,33,8.70
2015,09,22,07,34,8.70
2015,09,22,07,35,8.70
2015,09,22,07,36,8.70
2015,09,22,07,37,8.70
2015,09,22,07,38,8.70
2015,09,22,07,39,8.70
2015,09,22,07,40,8.70
2015,09,22,07,41,8.70
2015,09,22,07,42,8.70
2015,09,22,07,43,8.70
2015,09,22,07,44,8.70
2015,09,22,07,45,8.70
2015,09,22,07,46,8.70
2015,09,22,07,47,8.70
2015,09,22,07,48,8.70
2015,09,22,07,49,8.70
2015,09,22,07,50,8.60
2015,09,22,07,51,8.50
2015,09,22,07,52,8.40
2015,09,22,07,53,8.30
2015,09,22,07,54,8.10
2015,09,22,07,55,8.10
2015,09,22,07,56,8.10
2015,09,22,07,57,8.00
2015,09,22,07,58,7.90
2015,09,22,07,59,7.80
2015,09,22,08,00,7.80
2015,09,22,08,01,7.80
2015,09,22,08,02,7.70
2015,09,22,08,03,7.70
2015,09,22,08,04,7.70
2015,09,22,08,05,7.80
2015,09,22,08,06,7.90
2015,09,22,08,07,7.90
2015,09,22,08,08,8.00
2015,09,22,08,09,8.00
2015,09,22,08,10,8.10
2015,09,22,08,11,8.20
2015,09,22,08,12,8.20
2015,09,22,08,13,8.20
2015,09,22,08,14,8.30
2015,09,22,08,15,8.50
2015,09,22,08,16,8.50
2015,09,22,08,17,8.60
2015,09,22,08,18,8.70
2015,09,22,08,19,8.70
2015,09,22,08,20,8.70
2015,09,22,08,21,8.80
2015,09,22,08,22,8.90
2015,09,22,08,23,9.00
2015,09,22,08,24,9.10
2015,09,22,08,25,9.20
2015,09,22,08,26,9.30
2015,09,22,08,27,9.40
2015,09,22,08,28,9.60
2015,09,22,08,29,9.70
2015,09,22,08,30,9.70
2015,09,22,08,31,9.80
2015,09,22,08,32,9.90
2015,09,22,08,33,10.00
2015,09,22,08,34,10.10
2015,09,22,08,35,10.10
2015,09,22,08,36,10.10
2015,09,22,08,37,10.20
2015,09,22,08,38,10.20
2015,09,22,08,39,10.20
2015,09,22,08,40,10.30
2015,09,22,08,41,10.40
2015,09,22,08,42,10.40
2015,09,22,08,43,10.40
2015,09,22,08,44,10.50
2015,09,22,08,45,10.60
2015,09,22,08,46,10.60
2015,09,22,08,47,10.60
2015,09,22,08,48,10.60
2015,09,22,08,49,10.60
2015,09,22,08,50,10.60
2015,09,22,08,51,10.70
2015,09,22,08,52,10.80
2015,09,22,08,53,10.80
2015,09,22,08,54,10.90
2015,09,22,08,55,11.00
2015,09,22,08,56,11.10
2015,09,22,08,57,11.10
2015,09,22,08,58,11.10
2015,09,22,08,59,11.10
2015,09,22,09,00,11.10
2015,09,22,09,01,11.10
2015,09,22,09,02,11.10
2015,09,22,09,03,11.10
2015,09,22,09,04,11.10
2015,09,22,09,05,11.10
2015,09,22,09,06,11.10
2015,09,22,09,07,11.10
2015,09,22,09,08,11.10
2015,09,22,09,09,11.20
2015,09,22,09,10,11.20
2015,09,22,09,11,11.20
2015,09,22,09,12,11.20
2015,09,22,09,13,11.30
2015,09,22,09,14,11.30
2015,09,22,09,15,11.40
2015,09,22,09,16,11.40
2015,09,22,09,17,11.40
2015,09,22,09,18,11.40
2015,09,22,09,19,11.40
2015,09,22,09,20,11.40
2015,09,22,09,21,11.40
2015,09,22,09,22,11.40
2015,09,22,09,23,11.40
2015,09,22,09,24,11.40
2015,09,22,09,25,11.40
2015,09,22,09,26,11.50
2015,09,22,09,27,11.50
2015,09,22,09,28,11.40
2015,09,22,09,29,11.40
2015,09,22,09,30,11.40
2015,09,22,09,31,11.40
2015,09,22,09,32,11.50
2015,09,22,09,33,11.60
2015,09,22,09,34,11.60
2015,09,22,09,35,11.60
2015,09,22,09,36,11.60
2015,09,22,09,37,11.60
2015,09,22,09,38,11.60
2015,09,22,09,39,11.60
2015,09,22,09,40,11.60
2015,09,22,09,41,11.60
2015,09,22,09,42,11.60
2015,09,22,09,43,11.60
2015,09,22,09,44,11.60
2015,09,22,09,45,11.60
2015,09,22,09,46,11.40
2015,09,22,09,47,11.40
2015,09,22,09,48,11.40
2015,09,22,09,49,11.40
2015,09,22,09,50,11.40
2015,09,22,09,51,11.60
2015,09,22,09,52,11.60
2015,09,22,09,53,11.60
2015,09,22,09,54,11.60
2015,09,22,09,55,11.60
2015,09,22,09,56,11.60
2015,09,22,09,57,11.60
2015,09,22,09,58,11.60
2015,09,22,09,59,11.60
2015,09,22,10,00,11.60
2015,09,22,10,01,11.60
2015,09,22,10,02,11.60
2015,09,22,10,03,11.60
2015,09,22,10,04,11.60
2015,09,22,10,05,11.60
2015,09,22,10,06,11.80
2015,09,22,10,07,11.80
2015,09,22,10,08,11.90
2015,09,22,10,09,12.00
2015,09,22,10,10,12.10
2015,09,22,10,11,12.20
2015,09,22,10,12,12.30
2015,09,22,10,13,12.30
2015,09,22,10,14,12.40
2015,09,22,10,15,12.50
2015,09,22,10,16,12.50
2015,09,22,10,17,12.60
2015,09,22,10,18,12.60
2015,09,22,10,19,12.60
2015,09,22,10,20,12.60
2015,09,22,10,21,12.60
2015,09,22,10,22,12.50
2015,09,22,10,23,12.50
2015,09,22,10,24,12.50
2015,09,22,10,25,12.60
2015,09,22,10,26,12.60
2015,09,22,10,27,12.70
2015,09,22,10,28,12.80
2015,09,22,10,29,12.80
2015,09,22,10,30,12.80
2015,09,22,10,31,12.80
2015,09,22,10,32,12.80
2015,09,22,10,33,12.70
2015,09,22,10,34,12.80
2015,09,22,10,35,12.80
2015,09,22,10,36,12.80
2015,09,22,10,37,12.80
2015,09,22,10,38,12.80
2015,09,22,10,39,12.80
2015,09,22,10,40,12.80
2015,09,22,10,41,12.80
2015,09,22,10,42,12.80
2015,09,22,10,43,12.80
2015,09,22,10,44,12.90
2015,09,22,10,45,13.00
2015,09,22,10,46,13.00
2015,09,22,10,47,13.00
2015,09,22,10,48,13.00
2015,09,22,10,49,13.10
2015,09,22,10,50,13.10
2015,09,22,10,51,13.20
2015,09,22,10,52,13.20
2015,09,22,10,53,13.20
2015,09,22,10,54,13.20
2015,09,22,10,55,13.10
2015,09,22,10,56,13.10
2015,09,22,10,57,13.00
2015,09,22,10,58,12.90
2015,09,22,10,59,12.90
2015,09,22,11,00,12.80
2015,09,22,11,01,12.80
2015,09,22,11,02,12.90
2015,09,22,11,03,12.90
2015,09,22,11,04,12.90
2015,09,22,11,05,13.00
2015,09,22,11,06,13.00
2015,09,22,11,07,13.00
2015,09,22,11,08,13.10
2015,09,22,11,09,13.10
2015,09,22,11,10,13.10
2015,09,22,11,11,13.20
2015,09,22,11,12,13.20
2015,09,22,11,13,13.20
2015,09,22,11,14,13.10
2015,09,22,11,15,13.10
2015,09,22,11,16,13.10
2015,09,22,11,17,13.00
2015,09,22,11,18,13.00
2015,09,22,11,19,13.10
2015,09,22,11,20,13.10
2015,09,22,11,21,13.10
2015,09,22,11,22,13.10
2015,09,22,11,23,13.20
2015,09,22,11,24,13.20
2015,09,22,11,25,13.20
2015,09,22,11,26,13.20
2015,09,22,11,27,13.20
2015,09,22,11,28,13.20
2015,09,22,11,29,13.20
2015,09,22,11,30,13.20
2015,09,22,11,31,13.20
2015,09,22,11,32,13.20
2015,09,22,11,33,13.20
2015,09,22,11,34,13.20
2015,09,22,11,35,13.20
2015,09,22,11,36,13.10
2015,09,22,11,37,13.00
2015,09,22,11,38,12.90
2015,09,22,11,39,12.90
2015,09,22,11,40,12.90
2015,09,22,11,41,12.90
2015,09,22,11,42,12.90
2015,09,22,11,43,12.90
2015,09,22,11,44,12.90
2015,09,22,11,45,12.90
2015,09,22,11,46,12.90
2015,09,22,11,47,12.80
2015,09,22,11,48,12.70
2015,09,22,11,49,12.60
2015,09,22,11,50,12.50
2015,09,22,11,51,12.40
2015,09,22,11,52,12.40
2015,09,22,11,53,12.50
2015,09,22,11,54,12.50
2015,09,22,11,55,12.60
2015,09,22,11,56,12.60
2015,09,22,11,57,12.60
2015,09,22,11,58,12.70
2015,09,22,11,59,12.70
2015,09,22,12,00,12.60
2015,09,22,12,01,12.60
2015,09,22,12,02,12.50
2015,09,22,12,03,12.40
2015,09,22,12,04,12.40
2015,09,22,12,05,12.40
2015,09,22,12,06,12.30
2015,09,22,12,07,12.30
2015,09,22,12,08,12.30
2015,09,22,12,09,12.30
2015,09,22,12,10,12.30
2015,09,22,12,11,12.30
2015,09,22,12,12,12.30
2015,09,22,12,13,12.30
2015,09,22,12,14,12.30
2015,09,22,12,15,12.40
2015,09,22,12,16,12.40
2015,09,22,12,17,12.50
2015,09,22,12,18,12.60
2015,09,22,12,19,12.70
2015,09,22,12,20,12.70
2015,09,22,12,21,12.80
2015,09,22,12,22,12.80
2015,09,22,12,23,12.80
2015,09,22,12,24,12.80
2015,09,22,12,25,12.80
2015,09,22,12,26,12.90
2015,09,22,12,27,12.90
2015,09,22,12,28,13.00
2015,09,22,12,29,13.10
2015,09,22,12,30,13.10
2015,09,22,12,31,13.30
2015,09,22,12,32,13.30
2015,09,22,12,33,13.50
2015,09,22,12,34,13.50
2015,09,22,12,35,13.60
2015,09,22,12,36,13.60
2015,09,22,12,37,13.60
2015,09,22,12,38,13.60
2015,09,22,12,39,13.50
2015,09,22,12,40,13.40
2015,09,22,12,41,13.40
2015,09,22,12,42,13.30
2015,09,22,12,43,13.40
2015,09,22,12,44,13.60
2015,09,22,12,45,13.70
2015,09,22,12,46,13.70
2015,09,22,12,47,13.80
2015,09,22,12,48,13.90
2015,09,22,12,49,13.80
2015,09,22,12,50,13.80
2015,09,22,12,51,13.80
2015,09,22,12,52,13.80
2015,09,22,12,53,13.90
2015,09,22,12,54,14.00
2015,09,22,12,55,14.00
2015,09,22,12,56,14.20
2015,09,22,12,57,14.10
2015,09,22,12,58,14.00
2015,09,22,12,59,14.00
2015,09,22,13,00,14.00
2015,09,22,13,01,14.10
2015,09,22,13,02,14.10
2015,09,22,13,03,14.20
2015,09,22,13,04,14.10
2015,09,22,13,05,14.10
2015,09,22,13,06,14.00
2015,09,22,13,07,14.00
2015,09,22,13,08,14.00
2015,09,22,13,09,14.00
2015,09,22,13,10,14.00
2015,09,22,13,11,13.90
2015,09,22,13,12,13.90
2015,09,22,13,13,13.90
2015,09,22,13,14,14.00
2015,09,22,13,15,14.00
2015,09,22,13,16,14.00
2015,09,22,13,17,14.10
2015,09,22,13,18,14.20
2015,09,22,13,19,14.20
2015,09,22,13,20,14.20
2015,09,22,13,21,14.30
2015,09,22,13,22,14.30
2015,09,22,13,23,14.30
2015,09,22,13,24,14.30
2015,09,22,13,25,14.20
2015,09,22,13,26,14.20
2015,09,22,13,27,14.20
2015,09,22,13,28,14.30
2015,09,22,13,29,14.30
2015,09,22,13,30,14.30
2015,09,22,13,31,14.30
2015,09,22,13,32,14.20
2015,09,22,13,33,14.20
2015,09,22,13,34,14.30
2015,09,22,13,35,14.40
2015,09,22,13,36,14.50
2015,09,22,13,37,14.60
2015,09,22,13,38,14.60
2015,09,22,13,39,14.60
2015,09,22,13,40,14.60
2015,09,22,13,41,14.50
2015,09,22,13,42,14.40
2015,09,22,13,43,14.40
2015,09,22,13,44,14.40
2015,09,22,13,45,14.40
2015,09,22,13,46,14.50
2015,09,22,13,47,14.60
2015,09,22,13,48,14.60
2015,09,22,13,49,14.60
2015,09,22,13,50,14.60
2015,09,22,13,51,14.50
2015,09,22,13,52,14.40
2015,09,22,13,53,14.50
2015,09,22,13,54,14.50
2015,09,22,13,55,14.60
2015,09,22,13,56,14.60
2015,09,22,13,57,14.60
2015,09,22,13,58,14.60
2015,09,22,13,59,14.60
2015,09,22,14,00,14.60
2015,09,22,14,01,14.50
2015,09,22,14,02,14.60
2015,09,22,14,03,14.60
2015,09,22,14,04,14.50
2015,09,22,14,05,14.50
2015,09,22,14,06,14.50
2015,09,22,14,07,14.40
2015,09,22,14,08,14.40
2015,09,22,14,09,14.40
2015,09,22,14,10,14.40
2015,09,22,14,11,14.50
2015,09,22,14,12,14.60
2015,09,22,14,13,14.60
2015,09,22,14,14,14.60
2015,09,22,14,15,14.50
2015,09,22,14,16,14.40
2015,09,22,14,17,14.40
2015,09,22,14,18,14.40
2015,09,22,14,19,14.40
2015,09,22,14,20,14.50
2015,09,22,14,21,14.50
2015,09,22,14,22,14.60
2015,09,22,14,23,14.70
2015,09,22,14,24,14.80
2015,09,22,14,25,14.80
2015,09,22,14,26,14.80
2015,09,22,14,27,14.80
2015,09,22,14,28,14.80
2015,09,22,14,29,14.80
2015,09,22,14,30,14.80
2015,09,22,14,31,14.80
2015,09,22,14,32,14.90
2015,09,22,14,33,15.00
2015,09,22,14,34,15.00
2015,09,22,14,35,15.00
2015,09,22,14,36,15.00
2015,09,22,14,37,15.10
2015,09,22,14,38,15.10
2015,09,22,14,39,15.10
2015,09,22,14,40,15.00
2015,09,22,14,41,15.00
2015,09,22,14,42,14.90
2015,09,22,14,43,14.80
2015,09,22,14,44,14.80
2015,09,22,14,45,14.80
2015,09,22,14,46,14.80
2015,09,22,14,47,14.80
2015,09,22,14,48,14.80
2015,09,22,14,49,14.80
2015,09,22,14,50,14.90
2015,09,22,14,51,15.00
2015,09,22,14,52,15.00
2015,09,22,14,53,15.10
2015,09,22,14,54,15.10
2015,09,22,14,55,15.20
2015,09,22,14,56,15.20
2015,09,22,14,57,15.20
2015,09,22,14,58,15.30
2015,09,22,14,59,15.30
2015,09,22,15,00,15.30
2015,09,22,15,01,15.20
2015,09,22,15,02,15.20
2015,09,22,15,03,15.30
2015,09,22,15,04,15.30
2015,09,22,15,05,15.40
2015,09,22,15,06,15.40
2015,09,22,15,07,15.40
2015,09,22,15,08,15.50
2015,09,22,15,09,15.50
2015,09,22,15,10,15.40
2015,09,22,15,11,15.30
2015,09,22,15,12,15.20
2015,09,22,15,13,15.10
2015,09,22,15,14,15.00
2015,09,22,15,15,14.90
2015,09,22,15,16,14.80
2015,09,22,15,17,14.80
2015,09,22,15,18,14.80
2015,09,22,15,19,15.00
2015,09,22,15,20,15.10
2015,09,22,15,21,15.10
2015,09,22,15,22,15.10
2015,09,22,15,23,15.20
2015,09,22,15,24,15.30
2015,09,22,15,25,15.30
2015,09,22,15,26,15.30
2015,09,22,15,27,15.30
2015,09,22,15,28,15.30
2015,09,22,15,29,15.30
2015,09,22,15,47,15.30
2015,09,22,15,48,15.30
2015,09,22,15,51,15.10
2015,09,22,15,52,15.00
2015,09,22,15,53,15.00
2015,09,22,15,54,15.10
2015,09,22,15,55,15.20
2015,09,22,15,56,15.10
2015,09,22,15,57,15.10
2015,09,22,15,59,15.20
2015,09,22,16,00,15.20
2015,09,22,16,01,15.30
2015,09,22,16,02,15.40
2015,09,22,16,03,15.40
2015,09,22,16,04,15.30
2015,09,22,16,05,15.30
2015,09,22,16,06,15.20
2015,09,22,16,07,15.20
2015,09,22,16,08,15.20
2015,09,22,16,09,15.20
2015,09,22,16,10,15.20
2015,09,22,16,11,15.20
2015,09,22,16,12,15.30
2015,09,22,16,13,15.30
2015,09,22,16,14,15.40
2015,09,22,16,15,15.40
2015,09,22,16,16,15.50
2015,09,22,16,17,15.50
2015,09,22,16,18,15.50
2015,09,22,16,19,15.50
2015,09,22,16,20,15.50
2015,09,22,16,21,15.60
2015,09,22,16,22,15.60
2015,09,22,16,23,15.70
2015,09,22,16,24,15.80
2015,09,22,16,25,15.80
2015,09,22,16,26,15.80
2015,09,22,16,27,15.90
2015,09,22,16,28,16.00
2015,09,22,16,29,16.10
2015,09,22,16,30,16.10
2015,09,22,16,31,16.10
2015,09,22,16,32,16.10
2015,09,22,16,33,16.00
2015,09,22,16,34,15.80
2015,09,22,16,35,15.80
2015,09,22,16,36,15.80
2015,09,22,16,37,15.80
2015,09,22,16,38,15.80
2015,09,22,16,39,15.80
2015,09,22,16,40,15.80
2015,09,22,16,41,15.80
2015,09,22,16,42,15.70
2015,09,22,16,43,15.80
2015,09,22,16,44,15.80
2015,09,22,16,45,15.80
2015,09,22,16,46,15.80
2015,09,22,16,47,15.70
2015,09,22,16,48,15.70
2015,09,22,16,49,15.70
2015,09,22,16,50,15.70
2015,09,22,16,51,15.60
2015,09,22,16,52,15.50
2015,09,22,16,53,15.40
2015,09,22,16,54,15.40
2015,09,22,16,55,15.50
2015,09,22,16,56,15.50
2015,09,22,16,57,15.50
2015,09,22,16,58,15.60
2015,09,22,16,59,15.60
2015,09,22,17,00,15.60
2015,09,22,17,01,15.50
2015,09,22,17,02,15.50
2015,09,22,17,03,15.40
2015,09,22,17,04,15.30
2015,09,22,17,05,15.30
2015,09,22,17,06,15.30
2015,09,22,17,07,15.20
2015,09,22,17,08,15.20
2015,09,22,17,09,15.20
2015,09,22,17,10,15.20
2015,09,22,17,11,15.20
2015,09,22,17,12,15.30
2015,09,22,17,13,15.30
2015,09,22,17,14,15.30
2015,09,22,17,15,15.30
2015,09,22,17,16,15.20
2015,09,22,17,17,15.10
2015,09,22,17,18,15.10
2015,09,22,17,19,15.10
2015,09,22,17,20,15.10
2015,09,22,17,21,15.10
2015,09,22,17,22,15.10
2015,09,22,17,23,15.10
2015,09,22,17,24,15.20
2015,09,22,17,25,15.20
2015,09,22,17,26,15.10
2015,09,22,17,27,15.10
2015,09,22,17,28,15.00
2015,09,22,17,29,15.00
2015,09,22,17,30,14.90
2015,09,22,17,31,14.90
2015,09,22,17,32,14.80
2015,09,22,17,33,14.80
2015,09,22,17,34,14.80
2015,09,22,17,35,14.80
2015,09,22,17,36,14.80
2015,09,22,17,37,14.80
2015,09,22,17,38,14.70
2015,09,22,17,39,14.70
2015,09,22,17,40,14.60
2015,09,22,17,41,14.50
2015,09,22,17,42,14.50
2015,09,22,17,43,14.50
2015,09,22,17,44,14.40
2015,09,22,17,45,14.40
2015,09,22,17,46,14.40
2015,09,22,17,47,14.40
2015,09,22,17,48,14.30
2015,09,22,17,49,14.30
2015,09,22,17,50,14.30
2015,09,22,17,51,14.30
2015,09,22,17,52,14.20
2015,09,22,17,53,14.20
2015,09,22,17,54,14.20
2015,09,22,17,55,14.20
2015,09,22,17,56,14.20
2015,09,22,17,57,14.20
2015,09,22,17,58,14.20
2015,09,22,17,59,14.20
2015,09,22,18,00,14.20
2015,09,22,18,01,14.20
2015,09,22,18,02,14.20
2015,09,22,18,03,14.20
2015,09,22,18,04,14.20
2015,09,22,18,05,14.10
2015,09,22,18,06,14.10
2015,09,22,18,07,14.10
2015,09,22,18,08,14.00
2015,09,22,18,09,14.00
2015,09,22,18,10,14.00
2015,09,22,18,11,13.90
2015,09,22,18,12,13.90
2015,09,22,18,13,13.90
2015,09,22,18,14,13.90
2015,09,22,18,15,13.90
2015,09,22,18,16,13.80
2015,09,22,18,17,13.80
2015,09,22,18,18,13.80
2015,09,22,18,19,13.80
2015,09,22,18,20,13.80
2015,09,22,18,21,13.70
2015,09,22,18,22,13.70
2015,09,22,18,23,13.70
2015,09,22,18,24,13.70
2015,09,22,18,25,13.70
2015,09,22,18,26,13.70
2015,09,22,18,27,13.70
2015,09,22,18,28,13.70
2015,09,22,18,29,13.70
2015,09,22,18,30,13.70
2015,09,22,18,31,13.70
2015,09,22,18,32,13.70
2015,09,22,18,33,13.70
2015,09,22,18,34,13.60
2015,09,22,18,35,13.60
2015,09,22,18,36,13.60
2015,09,22,18,37,13.60
2015,09,22,18,38,13.60
2015,09,22,18,39,13.60
2015,09,22,18,40,13.60
2015,09,22,18,41,13.60
2015,09,22,18,42,13.60
2015,09,22,18,43,13.60
2015,09,22,18,44,13.50
2015,09,22,18,45,13.50
2015,09,22,18,46,13.50
2015,09,22,18,47,13.50
2015,09,22,18,48,13.50
2015,09,22,18,49,13.50
2015,09,22,18,50,13.50